Location: Newark
(41.0400°S, 62.7845°W)
Time: 21:06:01
(UTC+00:00)

Courier 1B Rocket - Pass Details

Date: 03 December 2021
Orbit: 920 x 1202 km, 28.2° (Epoch: 19 January)

Event Time Altitude Azimuth Distance (km) Brightness Sun altitude
Rises 13:22:00 0° 334° (NNW) 3,938 8.1 51.7°
Reaches altitude 10° 13:26:22 10° 358° (N) 3,040 7.8 52.5°
Maximum altitude 13:29:58 14° 26° (NNE) 2,783 8.0 53.1°
Drops below altitude 10° 13:33:37 10° 55° (NE) 3,113 8.4 53.8°
Sets 13:38:10 0° 78° (ENE) 4,103 8.8 54.6°
